SCP
1 1 1 1 1 1 1 1 1 1 1 1 1 1 1 1 1 1 1 1 1 1 1 0 0 0 0 0 0 0 0 0 0 0 0 0 0 0 0 0 0 0 0
1 1 1 1 1 1 1 1 1 1 1 1 1 1 1 1 1 1 1 1 1 1 1 0 0 0 0 0 0 0 0 0 0 0 0 0 0 0 0 0 0 0 0
1 1 1 1 1 1 1 1 1 1 1 1 1 1 1 0 1 1 1 1 1 0 0 0 0 0 0 0 0 0 0 0 0 0 0 0 0 0 0 0 0 0 0
1 1 1 1 1 1 1 1 1 0 0 0 0 0 0 0 0 0 1 0 0 0 0 0 0 0 0 0 0 0 0 0 0 0 0 0 0 0 0 0 0 0 0
1 1 1 1 1 1 1 0 0 0 0 0 0 0 0 0 0 0 0 0 0 0 0 0 0 0 0 0 0 0 0 0 0 0 0 0 0 0 0 0 0 0 0
1 1 1 1 0 0 0 0 0 0 0 0 0 0 0 0 0 0 0 0 0 0 0 0 0 0 0 0 0 0 0 0 0 0 0 0 0 0 0 0 0 0 0
1 1 1 1 1 0 0 0 0 0 0 0 0 0 0 0 0 0 0 0 0 0 0 0 0 0 0 0 0 0 0 0 0 0 0 0 0 0 0 0 0 0 0
1 1 1 1 1 1 0 0 0 0 0 0 0 0 0 0 0 0 0 0 0 0 0 0 0 0 0 0 0 0 0 0 0 0 0 0 0 0 0 0 0 0 0
1 1 1 1 1 1 1 1 1 0 0 0 0 0 0 0 0 0 0 0 0 0 0 0 0 0 0 0 0 0 0 0 0 0 0 0 0 0 0 0 0 0 0
1 1 1 1 1 1 1 1 0 0 0 0 0 0 0 0 0 0 0 0 0 0 0 0 0 0 0 0 0 0 0 0 0 0 0 0 0 0 0 0 0 0 0
1 1 1 1 1 1 1 0 0 0 0 0 0 0 0 0 0 0 0 0 0 0 0 0 0 0 0 0 0 0 0 0 0 0 0 0 0 0 0 0 0 0 0
1 1 1 1 1 0 0 0 0 0 0 0 0 0 0 0 0 0 0 0 0 0 0 0 0 0 0 0 0 0 0 0 0 0 0 0 0 0 0 0 0 0 0
1 1 1 1 0 0 0 0 0 0 0 0 0 0 0 0 0 0 0 0 0 0 0 0 0 0 0 0 0 0 0 0 0 0 0 0 0 0 0 0 0 0 0
1 1 1 0 0 0 0 0 0 0 0 0 0 0 0 0 0 0 0 0 0 0 0 0 0 0 0 0 0 0 0 0 0 0 0 0 0 0 0 0 0 0 0
1 1 0 0 0 0 0 0 0 0 0 0 0 0 0 0 0 0 0 0 0 0 0 0 0 0 0 0 0 0 0 0 0 0 0 0 0 0 0 0 0 0 0
0 0 0 0 0 0 0 0 0 0 0 0 0 0 0 0 0 0 0 0 0 0 0 0 0 0 0 0 0 0 0 0 0 0 0 0 0 0 0 0 0 0 0
0 0 0 0 0 0 0 0 0 0 0 0 0 0 0 0 0 0 0 0 0 0 0 0 0 0 0 0 0 0 0 0 0 0 0 0 0 0 0 0 0 0 0
0 0 0 0 0 0 0 0 0 0 0 0 0 0 0 0 0 0 0 0 0 0 0 0 0 0 0 0 0 0 0 0 0 0 0 0 0 0 0 0 0 0 0
0 0 0 0 0 0 0 0 0 0 0 0 0 0 0 0 0 0 0 0 0 0 0 0 0 0 0 0 0 0 0 0 0 0 0 0 0 0 0 0 0 0 0
0 0 0 0 0 0 0 0 0 0 0 0 0 0 0 0 0 0 0 0 0 0 0 0 0 0 0 0 0 0 0 0 0 0 0 0 0 0 0 0 0 0 0
0 0 0 0 0 0 0 0 0 0 0 0 0 0 0 0 0 0 0 0 0 0 0 0 0 0 0 0 0 0 0 0 0 0 0 0 0 0 0 0 0 0 0
0 0 0 0 0 0 0 0 0 0 0 0 0 0 0 0 0 0 0 0 0 0 0 0 0 0 0 0 0 0 0 0 0 0 0 0 0 0 0 0 0 0 0
0 0 0 0 0 0 0 0 0 0 0 0 0 0 0 0 0 0 0 0 0 0 0 0 0 0 0 0 0 0 0 0 0 0 0 0 0 0 0 0 0 0 0
0 0 0 0 0 0 0 0 0 0 0 0 0 0 0 0 0 0 0 0 0 0 0 0 0 0 0 0 0 0 0 0 0 0 0 0 0 0 0 0 0 0 0
0 0 0 0 0 0 0 0 0 0 0 0 0 0 0 0 0 0 0 0 0 0 0 0 0 0 0 0 0 0 0 0 0 0 0 0 0 0 0 0 0 0 0
0 0 0 0 0 0 0 0 0 0 0 0 0 0 0 0 0 0 0 0 0 0 0 0 0 0 0 0 0 0 0 0 0 0 0 0 0 0 0 0 0 0 0
Wind_Speed
5 4 3 3 2 2 1 0 1 1 0 0 0 0 0 0 0 1 1 1 1 1 1 1 1 1 1 2 1 2 1 1 2 2 1 1 1 2 1 1 2 3 3
5 4 4 3 3 2 1 1 1 1 1 1 0 1 1 0 0 0 0 0 0 0 1 1 1 1 1 2 2 2 2 1 1 2 2 1 1 1 1 1 1 2 2
5 5 5 4 3 2 2 2 2 2 1 1 2 1 1 1 1 1 1 1 1 2 2 2 2 2 2 1 2 2 2 1 0 1 1 1 1 1 1 1 2 2 2
6 6 5 4 4 3 3 3 3 2 2 2 2 1 1 2 2 2 2 2 2 3 3 4 4 4 3 3 2 3 2 1 1 1 0 1 1 2 1 1 1 2 2
7 6 5 5 4 4 4 3 3 3 3 2 2 2 2 2 3 2 2 2 3 3 3 4 5 7 8 5 4 4 3 2 2 1 1 2 2 2 1 1 1 1 2
6 6 6 5 5 4 4 4 4 4 4 4 4 3 4 4 5 5 3 3 3 3 3 3 4 5 6 8 8 8 6 3 3 3 2 2 2 2 1 1 0 1 1
6 6 6 5 5 5 5 5 5 5 5 5 5 5 5 6 8 7 5 3 4 4 4 4 4 5 5 5 6 8 8 8 6 3 3 3 3 3 2 2 1 1 1
6 6 6 6 6 5 5 5 5 4 5 5 6 6 5 7 8 6 5 4 5 6 6 5 5 6 6 5 5 6 6 6 5 4 4 4 4 3 3 2 1 2 2
6 6 5 5 5 5 5 5 4 5 5 6 5 6 6 7 9 8 5 4 6 7 8 9 8 7 9 7 5 5 5 4 6 7 6 5 6 6 5 3 2 2 2
6 5 5 5 5 5 4 4 4 5 5 5 6 7 7 8 10 10 6 4 5 6 6 8 11 9 9 9 5 5 5 4 4 4 4 5 4 5 6 4 4 3 2
6 6 6 6 5 5 4 4 5 5 5 6 6 6 7 8 9 10 9 4 4 5 5 5 6 8 9 9 7 5 4 3 2 3 3 3 3 3 4 4 4 3 3
6 6 6 5 5 5 5 4 4 5 5 5 5 6 6 6 8 8 9 8 6 5 5 5 5 7 8 8 7 7 7 5 3 3 3 3 3 3 3 3 3 3 2
7 7 6 6 6 5 5 4 3 3 3 4 4 5 5 5 6 8 9 9 9 5 5 6 5 5 5 5 6 7 6 4 3 4 4 3 3 3 3 2 2 1 2
7 6 6 6 7 7 5 5 5 4 4 4 4 4 5 4 4 3 3 4 6 5 4 4 4 4 3 4 4 4 4 4 4 3 3 3 3 3 3 3 2 2 1
7 6 6 7 8 8 9 8 7 7 6 4 4 4 4 4 4 5 3 3 3 3 2 2 2 2 3 3 3 3 3 3 3 3 3 3 3 3 3 3 3 2 2
6 6 6 6 6 7 8 8 14 11 12 13 10 7 6 6 4 6 7 7 7 5 3 3 3 3 3 3 3 3 3 3 3 3 3 3 3 2 3 3 3 3 2
5 5 5 6 6 6 6 7 6 7 11 13 11 10 8 5 5 5 6 6 5 3 3 3 3 2 3 3 3 3 3 3 3 3 2 3 3 3 2 2 3 3 3
5 5 4 4 5 5 5 5 5 6 5 5 6 6 5 5 4 4 4 2 2 2 2 3 2 2 2 2 2 2 2 2 2 2 2 3 3 3 3 2 2 3 3
5 4 4 4 4 4 4 5 5 6 6 6 5 3 2 2 2 3 3 2 3 3 2 2 3 2 2 2 2 2 2 2 2 2 2 3 3 2 3 3 2 3 3
4 6 4 4 4 4 3 4 5 5 5 5 4 3 2 2 2 2 2 2 3 3 3 3 3 2 2 2 2 2 2 2 3 3 3 3 3 3 3 3 3 3 3
5 5 4 3 3 3 3 4 4 4 4 5 4 4 2 2 3 3 3 2 3 3 3 3 2 3 3 3 3 4 4 4 3 3 3 3 3 3 3 3 3 3 3
4 4 4 4 4 4 3 3 4 4 5 5 5 4 2 1 2 3 3 2 3 3 3 3 3 4 4 4 4 4 5 5 5 5 5 4 4 4 4 3 4 4 3
4 5 5 4 4 4 3 3 3 4 4 4 5 4 3 1 2 3 3 3 3 3 3 4 4 5 5 4 5 6 6 6 5 5 5 5 5 4 4 4 4 4 4
4 5 5 4 4 4 3 3 4 4 4 4 4 3 3 2 3 3 3 3 3 3 4 4 4 6 7 6 5 6 6 5 6 5 7 6 6 5 4 4 4 5 4
4 5 4 4 4 4 3 4 4 3 3 3 3 3 3 3 3 3 2 2 3 3 4 3 3 4 6 7 7 6 6 6 5 6 6 6 6 6 5 6 5 5 4
3 3 3 4 4 3 3 4 3 3 3 3 2 3 3 3 2 2 2 2 2 2 2 2 4 5 5 5 6 5 4 4 5 6 6 5 6 5 6 5 6 5 5
Wind_Direction
158 161 163 157 155 159 155 94 83 55 75 74 341 43 28 314 262 241 243 242 243 262 272 261 257 268 289 300 296 286 279 220 243 275 313 349 36 30 55 94 99 110 122
142 136 129 118 115 118 117 103 87 82 91 91 47 40 303 301 59 62 271 314 356 316 318 341 327 305 295 307 313 303 296 263 225 257 294 324 336 1 22 38 77 101 106
128 121 113 108 108 100 87 83 82 77 72 59 60 51 23 14 20 28 52 47 52 47 36 35 17 6 0 348 341 329 328 333 160 198 268 325 354 10 19 31 63 63 77
117 113 108 104 96 92 83 77 77 79 74 63 60 59 49 32 16 24 57 62 60 58 55 49 39 38 29 17 13 5 1 11 57 83 47 8 11 4 28 52 64 60 65
113 112 107 101 97 93 84 74 67 70 76 64 51 41 42 48 23 26 67 74 63 59 59 61 61 61 58 52 45 29 24 28 40 54 41 26 19 15 8 12 80 80 63
111 113 110 107 104 96 91 80 68 60 58 62 56 50 50 39 22 38 66 66 63 61 55 57 71 63 67 68 66 60 55 52 44 53 43 26 17 12 6 25 80 105 53
109 109 111 110 104 98 97 86 74 66 62 61 60 64 60 38 34 43 65 75 68 58 53 49 46 45 54 70 70 66 60 57 58 62 54 28 22 10 10 34 35 45 68
114 110 107 103 99 94 87 82 77 73 66 63 59 59 60 43 37 44 60 82 77 65 56 54 57 49 38 52 71 68 62 52 51 61 60 49 45 27 21 33 60 76 95
111 108 105 104 103 101 94 87 82 81 78 72 63 59 57 42 32 40 59 93 84 71 63 54 51 51 31 44 65 70 69 63 61 62 63 66 56 41 35 35 33 52 48
109 106 104 104 106 105 100 96 93 89 85 79 69 61 57 50 41 37 34 78 90 90 82 69 56 51 42 42 53 57 54 44 55 60 55 51 52 49 43 35 25 29 34
104 102 101 103 104 99 95 96 95 92 89 86 80 70 62 53 51 44 40 54 71 80 81 76 60 49 50 46 48 50 41 26 49 55 56 54 43 40 42 38 31 39 37
106 103 102 105 106 105 101 96 99 102 102 97 92 82 70 60 51 50 51 52 58 74 79 82 77 63 60 55 52 41 36 33 33 44 49 45 44 38 39 42 41 41 44
108 104 98 94 84 87 93 95 99 102 100 99 94 86 76 71 61 57 60 61 63 72 79 91 89 77 73 65 56 41 29 25 33 44 44 39 40 37 30 31 34 32 30
107 101 98 97 87 72 61 61 56 41 60 78 79 82 82 69 53 43 61 71 80 83 88 100 93 63 56 60 53 42 39 32 36 38 31 30 31 27 22 13 8 14 36
113 111 110 99 90 77 63 47 54 50 40 50 64 74 83 80 39 27 40 42 42 57 69 104 95 85 76 70 63 49 37 30 29 26 23 23 21 19 11 4 360 358 16
130 130 120 113 109 105 99 79 51 58 57 58 62 76 72 75 70 49 41 36 42 44 61 76 69 63 63 60 56 55 45 30 21 22 18 10 6 14 11 5 1 354 357
120 119 120 121 123 120 119 116 105 72 58 57 58 68 80 79 60 46 33 21 18 35 65 73 70 58 52 53 47 46 45 34 15 19 12 7 360 1 4 3 359 351 353
118 109 113 122 128 130 132 130 129 126 113 88 64 63 72 68 49 33 25 26 52 65 55 61 66 63 54 44 40 35 41 43 16 4 2 1 353 351 352 354 6 355 349
115 112 109 115 124 131 134 134 129 125 122 121 120 98 70 78 47 21 27 41 58 65 56 50 52 51 42 32 28 23 28 36 13 359 1 351 349 351 351 348 357 354 337
114 112 114 126 131 132 127 119 117 118 117 116 114 114 146 169 121 89 63 31 46 49 36 47 48 38 28 16 18 19 19 29 20 8 358 348 346 346 345 343 344 341 338
122 123 123 121 113 108 105 105 107 112 113 111 101 91 87 114 104 92 79 58 45 46 39 32 36 33 33 26 21 16 17 20 16 1 351 345 340 340 336 337 337 337 338
121 124 128 117 111 107 107 109 109 107 108 113 116 114 104 92 90 96 89 73 59 45 43 34 37 44 37 32 28 25 23 16 8 1 351 345 342 342 340 340 341 334 338
132 126 119 113 108 109 118 118 114 116 115 111 112 118 126 98 80 78 74 64 58 51 47 43 38 40 42 39 41 39 29 12 357 354 347 338 335 333 330 333 331 335 343
129 122 121 122 121 120 112 105 103 105 107 110 111 114 116 98 82 78 77 73 60 56 56 52 50 48 45 41 45 46 35 15 357 353 344 329 326 329 331 332 330 334 333
118 123 127 124 120 118 111 100 97 98 100 102 108 111 112 108 100 92 82 80 77 65 58 59 55 57 58 59 56 49 37 23 14 351 331 321 325 329 328 328 326 322 324
126 126 125 121 115 115 118 116 113 111 107 105 108 107 110 114 104 92 89 82 80 83 71 70 73 72 67 67 67 63 44 15 0 346 327 315 317 326 331 324 324 325 325